SCP
1 0 0 0 0 0 0 0 0 0 0 0 0 0 0 0 0 0 0 0 0 0
0 0 0 0 0 0 0 0 0 0 0 0 0 0 0 0 0 0 0 0 0 0
1 0 0 0 0 0 0 0 0 0 0 0 0 0 0 0 0 0 0 0 0 0
0 0 0 0 0 0 0 0 0 0 0 0 0 0 0 0 0 0 0 0 0 0
0 0 0 0 0 0 0 0 0 0 0 0 0 0 0 0 0 0 0 0 0 0
0 0 -0 0 0 0 0 0 0 0 0 0 0 0 0 0 0 0 0 0 0 0
0 0 0 0 0 0 0 0 0 0 0 0 0 0 0 0 0 0 0 0 0 0
0 0 0 0 0 0 0 0 0 0 0 0 0 0 0 0 0 0 0 0 0 0
1 1 0 0 0 0 0 0 0 0 0 0 0 0 0 0 0 0 0 0 0 0
0 0 0 0 0 0 0 0 0 0 0 0 0 0 0 0 0 0 0 0 0 0
1 1 0 0 0 0 0 0 0 0 0 0 0 0 0 0 0 0 0 0 0 0
1 1 0 0 0 0 0 0 0 0 0 0 0 0 0 0 0 0 0 0 0 0
1 1 1 0 0 0 0 0 0 0 0 0 0 0 0 0 0 0 0 0 0 0
1 1 1 0 0 0 0 0 0 0 0 0 0 0 0 0 0 0 0 0 0 0
Wind_Speed_500mb
126 120 113 100 90 91 82 65 23 41 56 56 61 55 49 43 38 33 26 23 17 13
130 122 117 98 81 88 84 73 57 61 58 64 68 60 54 48 42 35 29 25 17 12
133 121 114 94 77 81 85 77 45 61 63 67 72 64 58 51 46 38 33 27 19 16
132 119 112 91 71 74 79 78 59 64 62 72 76 68 62 58 50 45 37 31 22 18
119 113 109 89 69 70 72 74 56 67 68 75 79 72 67 63 56 49 43 36 28 21
110 113 113 97 75 67 74 75 66 74 77 82 81 74 68 65 58 50 46 39 29 22
107 111 115 104 81 73 78 81 81 78 83 84 79 73 69 68 59 56 53 41 34 25
106 104 111 105 91 79 85 88 80 78 83 82 81 77 74 70 67 66 62 49 43 33
110 109 110 106 95 81 89 88 81 83 83 86 87 81 74 75 77 75 70 61 53 39
105 112 115 108 92 87 90 85 82 84 82 84 88 85 80 80 85 84 77 69 47 39
98 107 110 108 96 90 90 80 56 83 83 81 88 87 85 91 91 87 80 66 48 43
85 94 100 107 95 97 95 84 78 95 99 86 87 88 92 95 88 87 79 59 50 49
74 84 94 98 99 103 96 90 82 105 94 83 83 88 91 95 93 83 59 49 57 52
64 75 88 89 89 94 84 87 101 95 87 83 79 85 88 94 101 75 58 63 66 66
Wind_Direction_500mb
231 234 237 238 236 233 232 228 232 258 234 227 222 221 217 213 209 208 207 207 204 217
231 233 237 236 238 235 232 236 238 228 220 217 220 222 219 215 213 210 210 206 206 213
233 231 238 235 242 234 234 235 230 212 217 214 218 220 219 215 212 212 211 208 212 216
234 230 235 232 239 234 233 232 220 214 215 212 217 219 219 217 216 213 212 209 215 217
236 230 232 231 234 229 233 232 229 222 218 215 217 218 218 217 216 216 213 212 209 213
238 233 232 233 235 232 231 229 229 226 219 216 216 217 217 220 220 218 216 209 203 208
241 236 234 235 236 235 229 228 228 227 222 218 217 219 219 217 216 215 208 201 202 206
243 239 235 235 237 233 227 227 226 228 222 219 218 219 217 218 216 212 203 196 197 193
249 240 237 234 234 230 228 226 223 225 223 219 219 220 219 220 215 210 201 195 196 190
252 248 241 236 234 227 226 223 226 226 220 221 223 222 220 221 218 209 199 196 193 177
255 250 245 242 233 225 223 219 225 236 224 222 223 225 223 223 217 203 197 196 191 177
262 250 248 246 240 230 221 202 209 222 222 219 221 220 224 224 208 199 195 187 179 176
265 261 256 248 240 234 226 203 215 212 215 218 220 220 221 216 202 189 184 180 179 174
283 267 259 248 242 238 230 223 212 209 210 214 217 219 222 223 204 188 185 192 179 176
Wind_Speed_850mb
126 120 113 100 90 91 82 65 23 41 56 56 61 55 49 43 38 33 26 23 17 13
130 122 117 98 81 88 84 73 57 61 58 64 68 60 54 48 42 35 29 25 17 12
133 121 114 94 77 81 85 77 45 61 63 67 72 64 58 51 46 38 33 27 19 16
132 119 112 91 71 74 79 78 59 64 62 72 76 68 62 58 50 45 37 31 22 18
119 113 109 89 69 70 72 74 56 67 68 75 79 72 67 63 56 49 43 36 28 21
110 113 113 97 75 67 74 75 66 74 77 82 81 74 68 65 58 50 46 39 29 22
107 111 115 104 81 73 78 81 81 78 83 84 79 73 69 68 59 56 53 41 34 25
106 104 111 105 91 79 85 88 80 78 83 82 81 77 74 70 67 66 62 49 43 33
110 109 110 106 95 81 89 88 81 83 83 86 87 81 74 75 77 75 70 61 53 39
105 112 115 108 92 87 90 85 82 84 82 84 88 85 80 80 85 84 77 69 47 39
98 107 110 108 96 90 90 80 56 83 83 81 88 87 85 91 91 87 80 66 48 43
85 94 100 107 95 97 95 84 78 95 99 86 87 88 92 95 88 87 79 59 50 49
74 84 94 98 99 103 96 90 82 105 94 83 83 88 91 95 93 83 59 49 57 52
64 75 88 89 89 94 84 87 101 95 87 83 79 85 88 94 101 75 58 63 66 66
Wind_Direction_850mb
231 234 237 238 236 233 232 228 232 258 234 227 222 221 217 213 209 208 207 207 204 217
231 233 237 236 238 235 232 236 238 228 220 217 220 222 219 215 213 210 210 206 206 213
233 231 238 235 242 234 234 235 230 212 217 214 218 220 219 215 212 212 211 208 212 216
234 230 235 232 239 234 233 232 220 214 215 212 217 219 219 217 216 213 212 209 215 217
236 230 232 231 234 229 233 232 229 222 218 215 217 218 218 217 216 216 213 212 209 213
238 233 232 233 235 232 231 229 229 226 219 216 216 217 217 220 220 218 216 209 203 208
241 236 234 235 236 235 229 228 228 227 222 218 217 219 219 217 216 215 208 201 202 206
243 239 235 235 237 233 227 227 226 228 222 219 218 219 217 218 216 212 203 196 197 193
249 240 237 234 234 230 228 226 223 225 223 219 219 220 219 220 215 210 201 195 196 190
252 248 241 236 234 227 226 223 226 226 220 221 223 222 220 221 218 209 199 196 193 177
255 250 245 242 233 225 223 219 225 236 224 222 223 225 223 223 217 203 197 196 191 177
262 250 248 246 240 230 221 202 209 222 222 219 221 220 224 224 208 199 195 187 179 176
265 261 256 248 240 234 226 203 215 212 215 218 220 220 221 216 202 189 184 180 179 174
283 267 259 248 242 238 230 223 212 209 210 214 217 219 222 223 204 188 185 192 179 176